Time,TemperatureF,DewpointF,PressureIn,WindDirection,WindDirectionDegrees,WindSpeedMPH,WindSpeedGustMPH,Humidity,HourlyPrecipIn,Conditions,Clouds,dailyrainin,SoftwareType,DateUTC
2013-06-17 00:14:00,77.7,63.0,29.64,WSW,253,0.0,0.0,61,0.00,,,0.00,weatherlink.com 1.10,2013-06-17 06:14:00,
2013-06-17 00:29:00,77.5,62.0,29.64,WSW,253,0.0,0.0,60,0.00,,,0.00,weatherlink.com 1.10,2013-06-17 06:29:00,
2013-06-17 00:44:00,77.4,63.0,29.63,WSW,253,0.0,0.0,61,0.00,,,0.00,weatherlink.com 1.10,2013-06-17 06:44:00,
2013-06-17 00:59:00,77.5,63.0,29.63,WSW,253,0.0,0.0,61,0.00,,,0.00,weatherlink.com 1.10,2013-06-17 06:59:00,
2013-06-17 01:14:00,77.6,63.0,29.62,WSW,253,0.0,0.0,61,0.00,,,0.00,weatherlink.com 1.10,2013-06-17 07:14:00,
2013-06-17 01:29:00,77.7,63.0,29.61,WSW,253,0.0,0.0,61,0.00,,,0.00,weatherlink.com 1.10,2013-06-17 07:29:00,
2013-06-17 01:44:00,77.7,64.0,29.61,WSW,253,0.0,0.0,62,0.00,,,0.00,weatherlink.com 1.10,2013-06-17 07:44:00,
2013-06-17 01:59:00,77.5,62.0,29.61,WSW,253,0.0,0.0,60,0.00,,,0.00,weatherlink.com 1.10,2013-06-17 07:59:00,
2013-06-17 02:14:00,77.3,63.0,29.60,WSW,253,0.0,0.0,61,0.00,,,0.00,weatherlink.com 1.10,2013-06-17 08:14:00,
2013-06-17 02:29:00,77.3,63.0,29.60,WSW,253,0.0,0.0,61,0.00,,,0.00,weatherlink.com 1.10,2013-06-17 08:29:00,
2013-06-17 02:44:00,77.3,63.0,29.60,WSW,253,0.0,0.0,62,0.00,,,0.00,weatherlink.com 1.10,2013-06-17 08:44:00,
2013-06-17 02:59:00,77.4,63.0,29.60,WSW,253,0.0,0.0,62,0.00,,,0.00,weatherlink.com 1.10,2013-06-17 08:59:00,
2013-06-17 03:14:00,77.5,63.0,29.60,WSW,253,0.0,0.0,62,0.00,,,0.00,weatherlink.com 1.10,2013-06-17 09:14:00,
2013-06-17 03:29:00,77.6,63.0,29.60,WSW,253,0.0,0.0,62,0.00,,,0.00,weatherlink.com 1.10,2013-06-17 09:29:00,
2013-06-17 03:44:00,77.7,64.0,29.60,WSW,253,0.0,0.0,62,0.00,,,0.00,weatherlink.com 1.10,2013-06-17 09:44:00,
2013-06-17 03:59:00,77.6,63.0,29.61,WSW,253,0.0,0.0,62,0.00,,,0.00,weatherlink.com 1.10,2013-06-17 09:59:00,
2013-06-17 04:14:00,77.5,64.0,29.62,WSW,253,0.0,0.0,63,0.00,,,0.00,weatherlink.com 1.10,2013-06-17 10:14:00,
2013-06-17 04:29:00,77.5,64.0,29.62,WSW,253,0.0,0.0,63,0.00,,,0.00,weatherlink.com 1.10,2013-06-17 10:29:00,
2013-06-17 04:44:00,77.5,64.0,29.62,WSW,253,0.0,0.0,63,0.00,,,0.00,weatherlink.com 1.10,2013-06-17 10:44:00,
2013-06-17 04:59:00,77.6,64.0,29.62,WSW,253,0.0,0.0,63,0.00,,,0.00,weatherlink.com 1.10,2013-06-17 10:59:00,
2013-06-17 05:14:00,77.6,64.0,29.61,WSW,253,0.0,0.0,63,0.00,,,0.00,weatherlink.com 1.10,2013-06-17 11:14:00,
2013-06-17 05:29:00,77.6,63.0,29.61,WSW,253,0.0,0.0,62,0.00,,,0.00,weatherlink.com 1.10,2013-06-17 11:29:00,
2013-06-17 05:44:00,77.5,63.0,29.62,WSW,253,0.0,0.0,62,0.00,,,0.00,weatherlink.com 1.10,2013-06-17 11:44:00,
2013-06-17 05:59:00,77.4,63.0,29.62,WSW,253,0.0,0.0,62,0.00,,,0.00,weatherlink.com 1.10,2013-06-17 11:59:00,
2013-06-17 06:14:00,77.4,63.0,29.63,WSW,253,0.0,0.0,62,0.00,,,0.00,weatherlink.com 1.10,2013-06-17 12:14:00,
2013-06-17 06:29:00,77.4,63.0,29.64,WSW,253,0.0,0.0,62,0.00,,,0.00,weatherlink.com 1.10,2013-06-17 12:29:00,
2013-06-17 06:44:00,77.4,63.0,29.64,WSW,253,0.0,0.0,62,0.00,,,0.00,weatherlink.com 1.10,2013-06-17 12:44:00,
2013-06-17 06:59:00,77.4,63.0,29.64,WSW,253,0.0,0.0,62,0.00,,,0.00,weatherlink.com 1.10,2013-06-17 12:59:00,
2013-06-17 07:14:00,77.2,63.0,29.64,WSW,253,0.0,0.0,61,0.00,,,0.00,weatherlink.com 1.10,2013-06-17 13:14:00,
2013-06-17 07:29:00,77.1,62.0,29.65,WSW,253,0.0,0.0,60,0.00,,,0.00,weatherlink.com 1.10,2013-06-17 13:29:00,
2013-06-17 07:44:00,77.0,62.0,29.65,WSW,253,0.0,0.0,60,0.00,,,0.00,weatherlink.com 1.10,2013-06-17 13:44:00,
2013-06-17 07:59:00,76.9,61.0,29.67,WSW,253,0.0,0.0,59,0.00,,,0.00,weatherlink.com 1.10,2013-06-17 13:59:00,
2013-06-17 08:14:00,76.8,61.0,29.68,WSW,253,0.0,0.0,59,0.00,,,0.00,weatherlink.com 1.10,2013-06-17 14:14:00,
2013-06-17 08:29:00,76.7,61.0,29.68,WSW,253,0.0,0.0,59,0.00,,,0.00,weatherlink.com 1.10,2013-06-17 14:29:00,
2013-06-17 08:44:00,76.7,61.0,29.69,WSW,253,0.0,0.0,59,0.00,,,0.00,weatherlink.com 1.10,2013-06-17 14:44:00,
2013-06-17 08:59:00,76.7,61.0,29.71,WSW,253,0.0,0.0,59,0.00,,,0.00,weatherlink.com 1.10,2013-06-17 14:59:00,
2013-06-17 09:14:00,76.7,61.0,29.74,WSW,253,0.0,0.0,59,0.00,,,0.00,weatherlink.com 1.10,2013-06-17 15:14:00,
2013-06-17 09:29:00,76.8,61.0,29.74,WSW,253,0.0,0.0,59,0.00,,,0.00,weatherlink.com 1.10,2013-06-17 15:29:00,
2013-06-17 09:44:00,76.8,61.0,29.74,WSW,253,0.0,0.0,59,0.00,,,0.00,weatherlink.com 1.10,2013-06-17 15:44:00,
2013-06-17 09:59:00,76.8,61.0,29.74,WSW,253,0.0,0.0,59,0.00,,,0.00,weatherlink.com 1.10,2013-06-17 15:59:00,
2013-06-17 10:15:00,76.8,61.0,29.71,WSW,253,0.0,0.0,59,0.00,,,0.00,weatherlink.com 1.10,2013-06-17 16:15:00,
2013-06-17 10:30:00,76.8,61.0,29.70,WSW,253,0.0,0.0,59,0.00,,,0.00,weatherlink.com 1.10,2013-06-17 16:30:00,
2013-06-17 10:45:00,76.8,61.0,29.69,WSW,253,0.0,0.0,59,0.00,,,0.00,weatherlink.com 1.10,2013-06-17 16:45:00,
2013-06-17 11:00:00,76.8,61.0,29.67,WSW,253,0.0,0.0,59,0.00,,,0.00,weatherlink.com 1.10,2013-06-17 17:00:00,
2013-06-17 11:15:00,76.8,61.0,29.65,WSW,253,0.0,0.0,59,0.00,,,0.00,weatherlink.com 1.10,2013-06-17 17:15:00,
2013-06-17 11:30:00,76.8,61.0,29.60,WSW,253,0.0,0.0,59,0.00,,,0.00,weatherlink.com 1.10,2013-06-17 17:30:00,
2013-06-17 11:45:00,76.8,61.0,29.61,WSW,253,0.0,0.0,59,0.00,,,0.00,weatherlink.com 1.10,2013-06-17 17:45:00,
2013-06-17 12:00:00,76.8,61.0,29.61,WSW,253,0.0,0.0,59,0.00,,,0.00,weatherlink.com 1.10,2013-06-17 18:00:00,
2013-06-17 12:15:00,76.8,61.0,29.62,WSW,253,0.0,0.0,59,0.00,,,0.00,weatherlink.com 1.10,2013-06-17 18:15:00,
2013-06-17 12:30:00,76.9,62.0,29.63,WSW,253,0.0,0.0,60,0.00,,,0.00,weatherlink.com 1.10,2013-06-17 18:30:00,
2013-06-17 12:45:00,77.0,62.0,29.62,WSW,253,0.0,0.0,60,0.00,,,0.00,weatherlink.com 1.10,2013-06-17 18:45:00,
2013-06-17 13:00:00,77.1,62.0,29.62,WSW,253,0.0,0.0,60,0.00,,,0.00,weatherlink.com 1.10,2013-06-17 19:00:00,
2013-06-17 13:15:00,77.1,62.0,29.63,WSW,253,0.0,0.0,60,0.00,,,0.00,weatherlink.com 1.10,2013-06-17 19:15:00,
2013-06-17 13:30:00,77.2,62.0,29.63,WSW,253,0.0,0.0,60,0.00,,,0.00,weatherlink.com 1.10,2013-06-17 19:30:00,
2013-06-17 13:45:00,77.3,62.0,29.62,WSW,253,0.0,0.0,60,0.00,,,0.00,weatherlink.com 1.10,2013-06-17 19:45:00,
2013-06-17 14:00:00,77.5,62.0,29.62,WSW,253,0.0,0.0,59,0.00,,,0.00,weatherlink.com 1.10,2013-06-17 20:00:00,
2013-06-17 14:15:00,77.6,63.0,29.61,WSW,253,0.0,0.0,60,0.00,,,0.00,weatherlink.com 1.10,2013-06-17 20:15:00,
2013-06-17 14:30:00,77.7,62.0,29.61,WSW,253,0.0,0.0,58,0.00,,,0.00,weatherlink.com 1.10,2013-06-17 20:30:00,
2013-06-17 14:45:00,77.6,62.0,29.61,WSW,253,0.0,0.0,59,0.00,,,0.00,weatherlink.com 1.10,2013-06-17 20:45:00,
2013-06-17 15:00:00,77.6,62.0,29.61,WSW,253,0.0,0.0,59,0.00,,,0.00,weatherlink.com 1.10,2013-06-17 21:00:00,
2013-06-17 15:15:00,77.8,62.0,29.60,WSW,253,0.0,0.0,59,0.00,,,0.00,weatherlink.com 1.10,2013-06-17 21:15:00,
2013-06-17 15:30:00,77.9,61.0,29.60,WSW,253,0.0,0.0,57,0.00,,,0.00,weatherlink.com 1.10,2013-06-17 21:30:00,
2013-06-17 15:45:00,77.7,62.0,29.59,WSW,253,0.0,0.0,58,0.00,,,0.00,weatherlink.com 1.10,2013-06-17 21:45:00,
2013-06-17 16:01:00,77.7,62.0,29.59,WSW,253,0.0,0.0,58,0.00,,,0.00,weatherlink.com 1.10,2013-06-17 22:01:00,
2013-06-17 16:15:00,77.8,62.0,29.58,WSW,253,0.0,0.0,59,0.00,,,0.00,weatherlink.com 1.10,2013-06-17 22:15:00,
2013-06-17 16:30:00,77.8,61.0,29.58,WSW,253,0.0,0.0,57,0.00,,,0.00,weatherlink.com 1.10,2013-06-17 22:30:00,
2013-06-17 16:45:00,77.6,62.0,29.58,WSW,253,0.0,0.0,58,0.00,,,0.00,weatherlink.com 1.10,2013-06-17 22:45:00,
2013-06-17 17:00:00,77.7,62.0,29.58,WSW,253,0.0,0.0,58,0.00,,,0.00,weatherlink.com 1.10,2013-06-17 23:00:00,
2013-06-17 17:15:00,77.8,62.0,29.58,WSW,253,0.0,0.0,58,0.00,,,0.00,weatherlink.com 1.10,2013-06-17 23:15:00,
2013-06-17 17:30:00,77.8,61.0,29.57,WSW,253,0.0,0.0,56,0.00,,,0.00,weatherlink.com 1.10,2013-06-17 23:30:00,
2013-06-17 17:45:00,77.5,61.0,29.57,WSW,253,0.0,0.0,57,0.00,,,0.00,weatherlink.com 1.10,2013-06-17 23:45:00,
2013-06-17 18:00:00,77.5,61.0,29.56,WSW,253,0.0,0.0,58,0.00,,,0.00,weatherlink.com 1.10,2013-06-18 00:00:00,
2013-06-17 18:15:00,77.6,62.0,29.56,WSW,253,0.0,0.0,58,0.00,,,0.00,weatherlink.com 1.10,2013-06-18 00:15:00,
2013-06-17 18:30:00,77.7,62.0,29.56,WSW,253,0.0,0.0,58,0.00,,,0.00,weatherlink.com 1.10,2013-06-18 00:30:00,
2013-06-17 18:45:00,77.7,61.0,29.56,WSW,253,0.0,0.0,57,0.00,,,0.00,weatherlink.com 1.10,2013-06-18 00:45:00,
2013-06-17 19:00:00,77.5,61.0,29.56,WSW,253,0.0,0.0,57,0.00,,,0.00,weatherlink.com 1.10,2013-06-18 01:00:00,
2013-06-17 19:15:00,77.5,61.0,29.57,WSW,253,0.0,0.0,58,0.00,,,0.00,weatherlink.com 1.10,2013-06-18 01:15:00,
2013-06-17 19:30:00,77.6,62.0,29.57,WSW,253,0.0,0.0,58,0.00,,,0.00,weatherlink.com 1.10,2013-06-18 01:30:00,
2013-06-17 19:45:00,77.7,62.0,29.56,WSW,253,0.0,0.0,58,0.00,,,0.00,weatherlink.com 1.10,2013-06-18 01:45:00,
2013-06-17 20:00:00,77.8,62.0,29.56,WSW,253,0.0,0.0,58,0.00,,,0.00,weatherlink.com 1.10,2013-06-18 02:00:00,
2013-06-17 20:15:00,77.7,62.0,29.56,WSW,253,0.0,0.0,59,0.00,,,0.00,weatherlink.com 1.10,2013-06-18 02:15:00,
2013-06-17 20:30:00,77.6,62.0,29.56,WSW,253,0.0,0.0,59,0.00,,,0.00,weatherlink.com 1.10,2013-06-18 02:30:00,
2013-06-17 20:45:00,77.7,62.0,29.56,WSW,253,0.0,0.0,59,0.00,,,0.00,weatherlink.com 1.10,2013-06-18 02:45:00,
2013-06-17 21:00:00,77.7,62.0,29.57,WSW,253,0.0,0.0,59,0.00,,,0.00,weatherlink.com 1.10,2013-06-18 03:00:00,
2013-06-17 21:15:00,77.8,62.0,29.57,WSW,253,0.0,0.0,59,0.00,,,0.00,weatherlink.com 1.10,2013-06-18 03:15:00,
2013-06-17 21:30:00,77.9,62.0,29.57,WSW,253,0.0,0.0,58,0.00,,,0.00,weatherlink.com 1.10,2013-06-18 03:30:00,
2013-06-17 21:45:00,77.6,62.0,29.58,WSW,253,0.0,0.0,59,0.00,,,0.00,weatherlink.com 1.10,2013-06-18 03:45:00,
2013-06-17 22:00:00,77.4,62.0,29.58,WSW,253,0.0,0.0,59,0.00,,,0.00,weatherlink.com 1.10,2013-06-18 04:00:00,
2013-06-17 22:15:00,77.4,62.0,29.59,WSW,253,0.0,0.0,60,0.00,,,0.00,weatherlink.com 1.10,2013-06-18 04:15:00,
2013-06-17 22:30:00,77.5,62.0,29.59,WSW,253,0.0,0.0,60,0.00,,,0.00,weatherlink.com 1.10,2013-06-18 04:30:00,
2013-06-17 22:45:00,77.6,63.0,29.59,WSW,253,0.0,0.0,60,0.00,,,0.00,weatherlink.com 1.10,2013-06-18 04:45:00,
2013-06-17 23:00:00,77.7,63.0,29.59,WSW,253,0.0,0.0,61,0.00,,,0.00,weatherlink.com 1.10,2013-06-18 05:00:00,
2013-06-17 23:15:00,77.8,63.0,29.59,WSW,253,0.0,0.0,61,0.00,,,0.00,weatherlink.com 1.10,2013-06-18 05:15:00,
2013-06-17 23:30:00,77.8,63.0,29.59,WSW,253,0.0,0.0,60,0.00,,,0.00,weatherlink.com 1.10,2013-06-18 05:30:00,
2013-06-17 23:45:00,77.6,62.0,29.59,WSW,253,0.0,0.0,59,0.00,,,0.00,weatherlink.com 1.10,2013-06-18 05:45:00,